This is the latest recevied weather packets stored in our database for station/object N5YHM-13. If no packets are shown the sender has not sent any weather packets the latest 10 day(s).
| Time | Temp. | Humidity | Pressure | Rain* | Wind** | Luminosity | Snow |
|---|---|---|---|---|---|---|---|
| 1777491261 | 29.44° C | 70% | 1014.6 hPa | 0 mm | - | 22 W/m² | - |
| 1777490957 | 29.44° C | 69% | 1014.4 hPa | 0 mm | - | 24 W/m² | - |
| 1777490652 | 29.44° C | 69% | 1014.4 hPa | 0 mm | - | 18 W/m² | - |
| 1777490349 | 29.44° C | 70% | 1014.6 hPa | 0 mm | - | 22 W/m² | - |
| 1777490047 | 29.44° C | 70% | 1014.7 hPa | 0 mm | - | 22 W/m² | - |
| 1777489744 | 28.89° C | 71% | 1014.9 hPa | 0 mm | - | 25 W/m² | - |
| 1777489441 | 29.44° C | 69% | 1014.6 hPa | 0 mm | - | 20 W/m² | - |
| 1777489137 | 29.44° C | 70% | 1014.5 hPa | 0 mm | - | 22 W/m² | - |
| 1777488835 | 29.44° C | 70% | 1014.9 hPa | 0 mm | - | 24 W/m² | - |
| 1777488532 | 29.44° C | 70% | 1015.2 hPa | 0 mm | - | 28 W/m² | - |
| 1777488229 | 28.89° C | 71% | 1015.4 hPa | 0 mm | - | 25 W/m² | - |
| 1777487927 | 29.44° C | 69% | 1015.5 hPa | 0 mm | - | 42 W/m² | - |
| 1777487625 | 29.44° C | 68% | 1015.7 hPa | 0 mm | - | 22 W/m² | - |
| 1777487322 | 29.44° C | 68% | 1015.6 hPa | 0 mm | - | 19 W/m² | - |
| 1777487014 | 28.89° C | 67% | 1015.8 hPa | 0 mm | - | 19 W/m² | - |
| 1777486710 | 29.44° C | 68% | 1015.9 hPa | 0 mm | - | 44 W/m² | - |
| 1777486408 | 28.89° C | 69% | 1016 hPa | 0 mm | - | 23 W/m² | - |
| 1777486104 | 28.89° C | 69% | 1016.3 hPa | 0 mm | - | 100 W/m² | - |
| 1777485801 | 28.33° C | 70% | 1016.3 hPa | 0 mm | - | 27 W/m² | - |
| 1777485497 | 28.33° C | 73% | 1016.1 hPa | 0 mm | - | 22 W/m² | - |
| 1777485193 | 28.33° C | 72% | 1016.3 hPa | 0 mm | - | 29 W/m² | - |
| 1777484890 | 28.33° C | 69% | 1016.2 hPa | 0 mm | - | 25 W/m² | - |
| 1777484587 | 28.33° C | 73% | 1016.2 hPa | 0 mm | - | 24 W/m² | - |
| 1777484283 | 28.33° C | 75% | 1016.3 hPa | 0 mm | - | 21 W/m² | - |
| 1777483979 | 28.33° C | 73% | 1016.5 hPa | 0 mm | - | 22 W/m² | - |
* Rain latest hour (hover to see other rain measurements)
** Current wind speed in m/s (hover to see current wind gust speed)